Year,Month,Day,Hour,Minute,Value (Times are PST for temperature in C)
2015,09,20,00,00,15.50
2015,09,20,00,01,15.50
2015,09,20,00,02,15.50
2015,09,20,00,03,15.50
2015,09,20,00,04,15.50
2015,09,20,00,05,15.50
2015,09,20,00,06,15.50
2015,09,20,00,07,15.40
2015,09,20,00,08,15.40
2015,09,20,00,09,15.40
2015,09,20,00,10,15.40
2015,09,20,00,11,15.40
2015,09,20,00,12,15.40
2015,09,20,00,13,15.40
2015,09,20,00,14,15.40
2015,09,20,00,15,15.40
2015,09,20,00,16,15.40
2015,09,20,00,17,15.40
2015,09,20,00,18,15.40
2015,09,20,00,19,15.40
2015,09,20,00,20,15.40
2015,09,20,00,21,15.40
2015,09,20,00,22,15.40
2015,09,20,00,23,15.40
2015,09,20,00,24,15.40
2015,09,20,00,25,15.40
2015,09,20,00,26,15.40
2015,09,20,00,27,15.40
2015,09,20,00,28,15.40
2015,09,20,00,29,15.40
2015,09,20,00,30,15.40
2015,09,20,00,31,15.40
2015,09,20,00,32,15.40
2015,09,20,00,33,15.40
2015,09,20,00,34,15.40
2015,09,20,00,35,15.40
2015,09,20,00,36,15.40
2015,09,20,00,37,15.40
2015,09,20,00,38,15.40
2015,09,20,00,39,15.40
2015,09,20,00,40,15.40
2015,09,20,00,41,15.40
2015,09,20,00,42,15.40
2015,09,20,00,43,15.40
2015,09,20,00,44,15.40
2015,09,20,00,45,15.40
2015,09,20,00,46,15.40
2015,09,20,00,47,15.40
2015,09,20,00,48,15.40
2015,09,20,00,49,15.40
2015,09,20,00,50,15.40
2015,09,20,00,51,15.40
2015,09,20,00,52,15.40
2015,09,20,00,53,15.40
2015,09,20,00,54,15.40
2015,09,20,00,55,15.40
2015,09,20,00,56,15.40
2015,09,20,00,57,15.40
2015,09,20,00,58,15.40
2015,09,20,00,59,15.30
2015,09,20,01,00,15.30
2015,09,20,01,01,15.30
2015,09,20,01,02,15.30
2015,09,20,01,03,15.30
2015,09,20,01,04,15.30
2015,09,20,01,05,15.30
2015,09,20,01,06,15.30
2015,09,20,01,07,15.30
2015,09,20,01,08,15.30
2015,09,20,01,09,15.30
2015,09,20,01,10,15.20
2015,09,20,01,11,15.20
2015,09,20,01,12,15.20
2015,09,20,01,13,15.10
2015,09,20,01,14,15.10
2015,09,20,01,15,15.00
2015,09,20,01,16,15.00
2015,09,20,01,17,14.90
2015,09,20,01,18,14.90
2015,09,20,01,19,14.90
2015,09,20,01,20,14.90
2015,09,20,01,21,14.90
2015,09,20,01,22,14.80
2015,09,20,01,23,14.80
2015,09,20,01,24,14.80
2015,09,20,01,25,14.80
2015,09,20,01,26,14.80
2015,09,20,01,27,14.80
2015,09,20,01,28,14.80
2015,09,20,01,29,14.80
2015,09,20,01,30,14.80
2015,09,20,01,31,14.80
2015,09,20,01,32,14.70
2015,09,20,01,33,14.70
2015,09,20,01,34,14.70
2015,09,20,01,35,14.70
2015,09,20,01,36,14.70
2015,09,20,01,37,14.70
2015,09,20,01,38,14.70
2015,09,20,01,39,14.70
2015,09,20,01,40,14.70
2015,09,20,01,41,14.80
2015,09,20,01,42,14.80
2015,09,20,01,43,14.80
2015,09,20,01,44,14.80
2015,09,20,01,45,14.80
2015,09,20,01,46,14.80
2015,09,20,01,47,14.80
2015,09,20,01,48,14.80
2015,09,20,01,49,14.80
2015,09,20,01,50,14.80
2015,09,20,01,51,14.80
2015,09,20,01,52,14.80
2015,09,20,01,53,14.80
2015,09,20,01,54,14.90
2015,09,20,01,55,14.90
2015,09,20,01,56,15.00
2015,09,20,01,57,15.00
2015,09,20,01,58,15.10
2015,09,20,01,59,15.20
2015,09,20,02,00,15.30
2015,09,20,02,01,15.30
2015,09,20,02,02,15.40
2015,09,20,02,03,15.40
2015,09,20,02,04,15.40
2015,09,20,02,05,15.40
2015,09,20,02,06,15.40
2015,09,20,02,07,15.40
2015,09,20,02,08,15.40
2015,09,20,02,09,15.40
2015,09,20,02,10,15.40
2015,09,20,02,11,15.50
2015,09,20,02,12,15.50
2015,09,20,02,13,15.50
2015,09,20,02,14,15.50
2015,09,20,02,15,15.50
2015,09,20,02,16,15.50
2015,09,20,02,17,15.50
2015,09,20,02,18,15.50
2015,09,20,02,19,15.50
2015,09,20,02,20,15.50
2015,09,20,02,21,15.50
2015,09,20,02,22,15.50
2015,09,20,02,23,15.50
2015,09,20,02,24,15.50
2015,09,20,02,25,15.40
2015,09,20,02,26,15.50
2015,09,20,02,27,15.50
2015,09,20,02,28,15.50
2015,09,20,02,29,15.50
2015,09,20,02,30,15.50
2015,09,20,02,31,15.60
2015,09,20,02,32,15.60
2015,09,20,02,33,15.60
2015,09,20,02,34,15.60
2015,09,20,02,35,15.50
2015,09,20,02,36,15.40
2015,09,20,02,37,15.40
2015,09,20,02,38,15.40
2015,09,20,02,39,15.50
2015,09,20,02,40,15.50
2015,09,20,02,41,15.50
2015,09,20,02,42,15.40
2015,09,20,02,43,15.30
2015,09,20,02,44,15.30
2015,09,20,02,45,15.20
2015,09,20,02,46,15.10
2015,09,20,02,47,15.10
2015,09,20,02,48,15.00
2015,09,20,02,49,15.00
2015,09,20,02,50,14.90
2015,09,20,02,51,14.90
2015,09,20,02,52,14.80
2015,09,20,02,53,14.70
2015,09,20,02,54,14.60
2015,09,20,02,55,14.50
2015,09,20,02,56,14.50
2015,09,20,02,57,14.50
2015,09,20,02,58,14.40
2015,09,20,02,59,14.40
2015,09,20,03,00,14.40
2015,09,20,03,01,14.40
2015,09,20,03,02,14.40
2015,09,20,03,03,14.40
2015,09,20,11,04,14.30
2015,09,20,11,05,14.30
2015,09,20,11,06,14.30
2015,09,20,11,07,14.30
2015,09,20,11,08,14.30
2015,09,20,11,09,14.30
2015,09,20,11,10,14.30
2015,09,20,11,11,14.30
2015,09,20,11,12,14.30
2015,09,20,11,13,14.30
2015,09,20,11,14,14.30
2015,09,20,11,15,14.30
2015,09,20,11,16,14.30
2015,09,20,11,17,14.30
2015,09,20,11,18,14.30
2015,09,20,11,19,14.30
2015,09,20,11,20,14.30
2015,09,20,11,21,14.30
2015,09,20,11,22,14.20
2015,09,20,11,23,14.20
2015,09,20,11,24,14.10
2015,09,20,11,25,14.10
2015,09,20,11,26,14.10
2015,09,20,11,27,14.10
2015,09,20,11,28,14.10
2015,09,20,11,29,14.10
2015,09,20,11,30,14.10
2015,09,20,11,31,14.20
2015,09,20,11,32,14.20
2015,09,20,11,33,14.20
2015,09,20,11,34,14.20
2015,09,20,11,35,14.20
2015,09,20,11,36,14.20
2015,09,20,11,37,14.20
2015,09,20,11,38,14.20
2015,09,20,11,39,14.20
2015,09,20,11,40,14.20
2015,09,20,11,41,14.20
2015,09,20,11,42,14.10
2015,09,20,11,43,14.10
2015,09,20,11,44,14.10
2015,09,20,11,45,14.10
2015,09,20,11,46,14.10
2015,09,20,11,47,14.00
2015,09,20,11,48,13.90
2015,09,20,11,49,13.90
2015,09,20,11,50,13.90
2015,09,20,11,51,13.80
2015,09,20,11,52,13.80
2015,09,20,11,53,13.80
2015,09,20,11,54,13.70
2015,09,20,11,55,13.70
2015,09,20,11,56,13.70
2015,09,20,11,57,13.60
2015,09,20,11,58,13.60
2015,09,20,11,59,13.60
2015,09,20,12,00,13.60
2015,09,20,12,01,13.60
2015,09,20,12,02,13.60
2015,09,20,12,03,13.50
2015,09,20,12,04,13.50
2015,09,20,12,05,13.50
2015,09,20,12,06,13.50
2015,09,20,12,07,13.40
2015,09,20,12,08,13.40
2015,09,20,12,09,13.30
2015,09,20,12,10,13.30
2015,09,20,12,11,13.30
2015,09,20,12,12,13.30
2015,09,20,12,13,13.30
2015,09,20,12,14,13.20
2015,09,20,12,15,13.20
2015,09,20,12,16,13.20
2015,09,20,12,17,13.20
2015,09,20,12,18,13.20
2015,09,20,12,19,13.20
2015,09,20,12,20,13.20
2015,09,20,12,21,13.10
2015,09,20,12,22,13.10
2015,09,20,12,23,13.10
2015,09,20,12,24,13.10
2015,09,20,12,25,13.10
2015,09,20,12,26,13.10
2015,09,20,12,27,13.10
2015,09,20,12,28,13.10
2015,09,20,12,29,13.10
2015,09,20,12,30,13.10
2015,09,20,12,31,13.10
2015,09,20,12,32,13.10
2015,09,20,12,33,13.10
2015,09,20,12,34,13.00
2015,09,20,12,35,13.00
2015,09,20,12,36,13.00
2015,09,20,12,37,13.00
2015,09,20,12,38,13.00
2015,09,20,12,39,12.90
2015,09,20,12,40,12.80
2015,09,20,12,41,12.80
2015,09,20,12,42,12.80
2015,09,20,12,43,12.70
2015,09,20,12,44,12.80
2015,09,20,12,45,12.80
2015,09,20,12,46,12.80
2015,09,20,12,47,12.80
2015,09,20,12,48,12.80
2015,09,20,12,49,12.70
2015,09,20,12,50,12.70
2015,09,20,12,51,12.70
2015,09,20,12,52,12.60
2015,09,20,12,53,12.60
2015,09,20,12,54,12.60
2015,09,20,12,55,12.60
2015,09,20,12,56,12.60
2015,09,20,12,57,12.50
2015,09,20,12,58,12.50
2015,09,20,12,59,12.40
2015,09,20,13,00,12.40
2015,09,20,13,01,12.40
2015,09,20,13,02,12.40
2015,09,20,13,03,12.40
2015,09,20,13,04,12.40
2015,09,20,13,05,12.30
2015,09,20,13,06,12.40
2015,09,20,13,07,12.40
2015,09,20,13,08,12.40
2015,09,20,13,09,12.40
2015,09,20,13,10,12.30
2015,09,20,13,11,12.30
2015,09,20,13,12,12.30
2015,09,20,13,13,12.20
2015,09,20,13,14,12.20
2015,09,20,13,15,12.20
2015,09,20,13,16,12.20
2015,09,20,13,17,12.20
2015,09,20,13,18,12.20
2015,09,20,13,19,12.20
2015,09,20,13,20,12.10
2015,09,20,13,21,12.10
2015,09,20,13,22,12.10
2015,09,20,13,23,12.10
2015,09,20,13,24,12.10
2015,09,20,13,25,12.10
2015,09,20,13,26,12.10
2015,09,20,13,27,12.10
2015,09,20,13,28,12.00
2015,09,20,13,29,12.00
2015,09,20,13,30,12.00
2015,09,20,13,31,12.00
2015,09,20,13,32,12.00
2015,09,20,13,33,12.00
2015,09,20,13,34,12.00
2015,09,20,13,35,11.90
2015,09,20,13,36,11.90
2015,09,20,13,37,11.90
2015,09,20,13,38,11.90
2015,09,20,13,39,11.90
2015,09,20,13,40,11.90
2015,09,20,13,41,11.90
2015,09,20,13,42,11.90
2015,09,20,13,43,11.90
2015,09,20,13,44,11.90
2015,09,20,13,45,11.90
2015,09,20,13,46,11.90
2015,09,20,13,47,11.90
2015,09,20,13,48,11.90
2015,09,20,13,49,11.90
2015,09,20,13,50,11.90
2015,09,20,13,51,11.90
2015,09,20,13,52,11.90
2015,09,20,13,53,11.90
2015,09,20,13,54,11.80
2015,09,20,13,55,11.80
2015,09,20,13,56,11.80
2015,09,20,13,57,11.80
2015,09,20,13,58,11.80
2015,09,20,13,59,11.80
2015,09,20,14,00,11.80
2015,09,20,14,01,11.80
2015,09,20,14,02,11.80
2015,09,20,14,03,11.70
2015,09,20,14,04,11.70
2015,09,20,14,05,11.70
2015,09,20,14,06,11.70
2015,09,20,14,07,11.60
2015,09,20,14,08,11.60
2015,09,20,14,09,11.60
2015,09,20,14,10,11.60
2015,09,20,14,11,11.60
2015,09,20,14,12,11.60
2015,09,20,14,13,11.60
2015,09,20,14,14,11.60
2015,09,20,14,15,11.60
2015,09,20,14,16,11.60
2015,09,20,14,17,11.60
2015,09,20,14,18,11.60
2015,09,20,14,19,11.60
2015,09,20,14,20,11.60
2015,09,20,14,21,11.60
2015,09,20,14,22,11.60
2015,09,20,14,23,11.60
2015,09,20,14,24,11.60
2015,09,20,14,25,11.60
2015,09,20,14,26,11.60
2015,09,20,14,27,11.60
2015,09,20,14,28,11.60
2015,09,20,14,29,11.60
2015,09,20,14,30,11.60
2015,09,20,14,31,11.70
2015,09,20,14,32,11.70
2015,09,20,14,33,11.70
2015,09,20,14,34,11.70
2015,09,20,14,35,11.70
2015,09,20,14,36,11.70
2015,09,20,14,37,11.80
2015,09,20,14,38,11.80
2015,09,20,14,39,11.80
2015,09,20,14,40,11.90
2015,09,20,14,41,11.90
2015,09,20,14,42,12.00
2015,09,20,14,43,12.00
2015,09,20,14,44,12.10
2015,09,20,14,45,12.10
2015,09,20,14,46,12.10
2015,09,20,14,47,12.10
2015,09,20,14,48,12.10
2015,09,20,14,49,12.10
2015,09,20,14,50,12.10
2015,09,20,14,51,12.10
2015,09,20,14,52,12.10
2015,09,20,14,53,12.10
2015,09,20,14,54,12.00
2015,09,20,14,55,12.10
2015,09,20,14,56,12.00
2015,09,20,14,57,12.00
2015,09,20,14,58,12.00
2015,09,20,14,59,12.00
2015,09,20,15,00,12.00
2015,09,20,15,01,12.00
2015,09,20,15,02,12.00
2015,09,20,15,03,11.90
2015,09,20,15,04,11.90
2015,09,20,15,05,11.90
2015,09,20,15,06,11.90
2015,09,20,15,07,11.90
2015,09,20,15,08,11.90
2015,09,20,15,09,12.00
2015,09,20,15,10,12.00
2015,09,20,15,11,12.00
2015,09,20,15,12,12.10
2015,09,20,15,13,12.10
2015,09,20,15,14,12.20
2015,09,20,15,15,12.20
2015,09,20,15,16,12.20
2015,09,20,15,17,12.30
2015,09,20,15,18,12.30
2015,09,20,15,19,12.30
2015,09,20,15,20,12.20
2015,09,20,15,21,12.20
2015,09,20,15,22,12.20
2015,09,20,15,23,12.20
2015,09,20,15,24,12.20
2015,09,20,15,25,12.20
2015,09,20,15,26,12.20
2015,09,20,15,27,12.20
2015,09,20,15,28,12.20
2015,09,20,15,29,12.20
2015,09,20,15,30,12.10
2015,09,20,15,31,12.10
2015,09,20,15,32,12.10
2015,09,20,15,33,12.10
2015,09,20,15,34,12.10
2015,09,20,15,35,12.10
2015,09,20,15,36,12.00
2015,09,20,15,37,12.10
2015,09,20,15,38,12.00
2015,09,20,15,39,12.00
2015,09,20,15,40,12.00
2015,09,20,15,41,11.90
2015,09,20,15,42,11.90
2015,09,20,15,43,12.00
2015,09,20,15,44,12.00
2015,09,20,15,45,12.10
2015,09,20,15,46,12.10
2015,09,20,15,47,12.10
2015,09,20,15,48,12.10
2015,09,20,15,49,12.10
2015,09,20,15,50,12.10
2015,09,20,15,51,12.10
2015,09,20,15,52,12.10
2015,09,20,15,53,12.10
2015,09,20,15,54,12.20
2015,09,20,15,55,12.20
2015,09,20,15,56,12.20
2015,09,20,15,57,12.30
2015,09,20,15,58,12.30
2015,09,20,15,59,12.30
2015,09,20,16,00,12.30
2015,09,20,16,01,12.30
2015,09,20,16,02,12.30
2015,09,20,16,03,12.30
2015,09,20,16,04,12.30
2015,09,20,16,05,12.30
2015,09,20,16,06,12.30
2015,09,20,16,07,12.30
2015,09,20,16,08,12.20
2015,09,20,16,09,12.20
2015,09,20,16,10,12.30
2015,09,20,16,11,12.20
2015,09,20,16,12,12.20
2015,09,20,16,13,12.20
2015,09,20,16,14,12.20
2015,09,20,16,15,12.20
2015,09,20,16,16,12.20
2015,09,20,16,17,12.20
2015,09,20,16,18,12.20
2015,09,20,16,19,12.20
2015,09,20,16,20,12.30
2015,09,20,16,21,12.30
2015,09,20,16,22,12.30
2015,09,20,16,23,12.30
2015,09,20,16,24,12.30
2015,09,20,16,25,12.30
2015,09,20,16,26,12.30
2015,09,20,16,27,12.30
2015,09,20,16,28,12.20
2015,09,20,16,29,12.20
2015,09,20,16,30,12.20
2015,09,20,16,31,12.20
2015,09,20,16,32,12.20
2015,09,20,16,33,12.20
2015,09,20,16,34,12.30
2015,09,20,16,35,12.30
2015,09,20,16,36,12.30
2015,09,20,16,37,12.40
2015,09,20,16,38,12.40
2015,09,20,16,39,12.40
2015,09,20,16,40,12.30
2015,09,20,16,41,12.30
2015,09,20,16,42,12.30
2015,09,20,16,43,12.20
2015,09,20,16,44,12.20
2015,09,20,16,45,12.20
2015,09,20,16,46,12.20
2015,09,20,16,47,12.20
2015,09,20,16,48,12.20
2015,09,20,16,49,12.20
2015,09,20,16,50,12.20
2015,09,20,16,51,12.20
2015,09,20,16,52,12.20
2015,09,20,16,53,12.20
2015,09,20,16,54,12.20
2015,09,20,16,55,12.10
2015,09,20,16,56,12.10
2015,09,20,16,57,12.10
2015,09,20,16,58,12.10
2015,09,20,16,59,12.10
2015,09,20,17,00,12.20
2015,09,20,17,01,12.20
2015,09,20,17,02,12.20
2015,09,20,17,03,12.20
2015,09,20,17,04,12.20
2015,09,20,17,05,12.20
2015,09,20,17,06,12.20
2015,09,20,17,07,12.20
2015,09,20,17,08,12.20
2015,09,20,17,09,12.20
2015,09,20,17,10,12.20
2015,09,20,17,11,12.20
2015,09,20,17,12,12.10
2015,09,20,17,13,12.10
2015,09,20,17,14,12.10
2015,09,20,17,15,12.10
2015,09,20,17,16,12.00
2015,09,20,17,17,12.00
2015,09,20,17,18,12.00
2015,09,20,17,19,12.00
2015,09,20,17,20,12.00
2015,09,20,17,21,12.00
2015,09,20,17,22,12.00
2015,09,20,17,23,12.00
2015,09,20,17,24,12.00
2015,09,20,17,25,12.00
2015,09,20,17,26,12.00
2015,09,20,17,27,12.00
2015,09,20,17,28,12.00
2015,09,20,17,29,12.10
2015,09,20,17,30,12.10
2015,09,20,17,31,12.10
2015,09,20,17,32,12.10
2015,09,20,17,33,12.10
2015,09,20,17,34,12.10
2015,09,20,17,35,12.10
2015,09,20,17,36,12.10
2015,09,20,17,37,12.10
2015,09,20,17,38,12.10
2015,09,20,17,39,12.10
2015,09,20,17,40,12.10
2015,09,20,17,41,12.10
2015,09,20,17,42,12.10
2015,09,20,17,43,12.10
2015,09,20,17,44,12.10
2015,09,20,17,45,12.10
2015,09,20,17,46,12.10
2015,09,20,17,47,12.10
2015,09,20,17,48,12.10
2015,09,20,17,49,12.10
2015,09,20,17,50,12.00
2015,09,20,17,51,12.00
2015,09,20,17,52,12.00
2015,09,20,17,53,12.00
2015,09,20,17,54,12.00
2015,09,20,17,55,12.00
2015,09,20,17,56,12.00
2015,09,20,17,57,12.10
2015,09,20,17,58,12.10
2015,09,20,17,59,12.10
2015,09,20,18,00,12.10
2015,09,20,18,01,12.10
2015,09,20,18,02,12.10
2015,09,20,18,03,12.20
2015,09,20,18,04,12.10
2015,09,20,18,05,12.10
2015,09,20,18,06,12.10
2015,09,20,18,07,12.10
2015,09,20,18,08,12.10
2015,09,20,18,09,12.10
2015,09,20,18,10,12.10
2015,09,20,18,11,12.10
2015,09,20,18,12,12.00
2015,09,20,18,13,12.00
2015,09,20,18,14,12.00
2015,09,20,18,15,12.00
2015,09,20,18,16,12.00
2015,09,20,18,17,12.00
2015,09,20,18,18,12.00
2015,09,20,18,19,12.10
2015,09,20,18,20,12.10
2015,09,20,18,21,12.10
2015,09,20,18,22,12.10
2015,09,20,18,23,12.10
2015,09,20,18,24,12.00
2015,09,20,18,25,12.00
2015,09,20,18,26,12.00
2015,09,20,18,27,12.00
2015,09,20,18,28,12.00
2015,09,20,18,29,12.00
2015,09,20,18,30,12.00
2015,09,20,18,31,12.00
2015,09,20,18,32,12.00
2015,09,20,18,33,12.00
2015,09,20,18,34,12.00
2015,09,20,18,35,12.00
2015,09,20,18,36,11.90
2015,09,20,18,37,11.90
2015,09,20,18,38,11.90
2015,09,20,18,39,11.80
2015,09,20,18,40,11.80
2015,09,20,18,41,11.80
2015,09,20,18,42,11.80
2015,09,20,18,43,11.80
2015,09,20,18,44,11.80
2015,09,20,18,45,11.80
2015,09,20,18,46,11.70
2015,09,20,18,47,11.70
2015,09,20,18,48,11.60
2015,09,20,18,49,11.60
2015,09,20,18,50,11.60
2015,09,20,18,51,11.60
2015,09,20,18,52,11.60
2015,09,20,18,53,11.50
2015,09,20,18,54,11.50
2015,09,20,18,55,11.50
2015,09,20,18,56,11.50
2015,09,20,18,57,11.40
2015,09,20,18,58,11.40
2015,09,20,18,59,11.40
2015,09,20,19,00,11.40
2015,09,20,19,01,11.40
2015,09,20,19,02,11.40
2015,09,20,19,03,11.30
2015,09,20,19,04,11.30
2015,09,20,19,05,11.30
2015,09,20,19,06,11.30
2015,09,20,19,07,11.30
2015,09,20,19,08,11.20
2015,09,20,19,09,11.20
2015,09,20,19,10,11.20
2015,09,20,19,11,11.10
2015,09,20,19,12,11.10
2015,09,20,19,13,11.10
2015,09,20,19,14,11.10
2015,09,20,19,15,11.10
2015,09,20,19,16,11.10
2015,09,20,19,17,11.10
2015,09,20,19,18,11.10
2015,09,20,19,19,11.00
2015,09,20,19,20,11.00
2015,09,20,19,21,11.00
2015,09,20,19,22,10.90
2015,09,20,19,23,10.90
2015,09,20,19,24,10.90
2015,09,20,19,25,10.90
2015,09,20,19,26,10.90
2015,09,20,19,27,10.80
2015,09,20,19,28,10.80
2015,09,20,19,29,10.80
2015,09,20,19,30,10.80
2015,09,20,19,31,10.80
2015,09,20,19,32,10.80
2015,09,20,19,33,10.80
2015,09,20,19,34,10.80
2015,09,20,19,35,10.70
2015,09,20,19,36,10.70
2015,09,20,19,37,10.70
2015,09,20,19,38,10.70
2015,09,20,19,39,10.70
2015,09,20,19,40,10.60
2015,09,20,19,41,10.60
2015,09,20,19,42,10.60
2015,09,20,19,43,10.60
2015,09,20,19,44,10.60
2015,09,20,19,45,10.60
2015,09,20,19,46,10.60
2015,09,20,19,47,10.50
2015,09,20,19,48,10.50
2015,09,20,19,49,10.50
2015,09,20,19,50,10.50
2015,09,20,19,51,10.50
2015,09,20,19,52,10.50
2015,09,20,19,53,10.40
2015,09,20,19,54,10.40
2015,09,20,19,55,10.40
2015,09,20,19,56,10.40
2015,09,20,19,57,10.40
2015,09,20,19,58,10.40
2015,09,20,19,59,10.40
2015,09,20,20,00,10.40
2015,09,20,20,01,10.40
2015,09,20,20,02,10.40
2015,09,20,20,03,10.30
2015,09,20,20,04,10.30
2015,09,20,20,05,10.30
2015,09,20,20,06,10.30
2015,09,20,20,07,10.30
2015,09,20,20,08,10.30
2015,09,20,20,09,10.30
2015,09,20,20,10,10.30
2015,09,20,20,11,10.30
2015,09,20,20,12,10.30
2015,09,20,20,13,10.20
2015,09,20,20,14,10.20
2015,09,20,20,15,10.20
2015,09,20,20,16,10.20
2015,09,20,20,17,10.20
2015,09,20,20,18,10.20
2015,09,20,20,19,10.20
2015,09,20,20,20,10.20
2015,09,20,20,21,10.20
2015,09,20,20,22,10.20
2015,09,20,20,23,10.20
2015,09,20,20,24,10.20
2015,09,20,20,25,10.20
2015,09,20,20,26,10.20
2015,09,20,20,27,10.20
2015,09,20,20,28,10.20
2015,09,20,20,29,10.20
2015,09,20,20,30,10.20
2015,09,20,20,31,10.30
2015,09,20,20,32,10.30
2015,09,20,20,33,10.30
2015,09,20,20,34,10.30
2015,09,20,20,35,10.30
2015,09,20,20,36,10.30
2015,09,20,20,37,10.30
2015,09,20,20,38,10.30
2015,09,20,20,39,10.30
2015,09,20,20,40,10.30
2015,09,20,20,41,10.30
2015,09,20,20,42,10.30
2015,09,20,20,43,10.30
2015,09,20,20,44,10.30
2015,09,20,20,45,10.30
2015,09,20,20,46,10.30
2015,09,20,20,47,10.30
2015,09,20,20,48,10.30
2015,09,20,20,49,10.30
2015,09,20,20,50,10.30
2015,09,20,20,51,10.30
2015,09,20,20,52,10.30
2015,09,20,20,53,10.30
2015,09,20,20,54,10.30
2015,09,20,20,55,10.30
2015,09,20,20,56,10.20
2015,09,20,20,57,10.20
2015,09,20,20,58,10.20
2015,09,20,20,59,10.20
2015,09,20,21,00,10.20
2015,09,20,21,01,10.20
2015,09,20,21,02,10.20
2015,09,20,21,03,10.20
2015,09,20,21,04,10.20
2015,09,20,21,05,10.20
2015,09,20,21,06,10.20
2015,09,20,21,07,10.20
2015,09,20,21,08,10.20
2015,09,20,21,09,10.20
2015,09,20,21,10,10.10
2015,09,20,21,11,10.10
2015,09,20,21,12,10.10
2015,09,20,21,13,10.10
2015,09,20,21,14,10.10
2015,09,20,21,15,10.10
2015,09,20,21,16,10.10
2015,09,20,21,17,10.10
2015,09,20,21,18,10.10
2015,09,20,21,19,10.10
2015,09,20,21,20,10.10
2015,09,20,21,21,10.10
2015,09,20,21,22,10.00
2015,09,20,21,23,10.00
2015,09,20,21,24,10.00
2015,09,20,21,25,10.00
2015,09,20,21,26,10.00
2015,09,20,21,27,10.00
2015,09,20,21,28,9.90
2015,09,20,21,29,9.90
2015,09,20,21,30,9.90
2015,09,20,21,31,9.90
2015,09,20,21,32,9.90
2015,09,20,21,33,9.90
2015,09,20,21,34,9.90
2015,09,20,21,35,9.90
2015,09,20,21,36,9.80
2015,09,20,21,37,9.80
2015,09,20,21,38,9.80
2015,09,20,21,39,9.80
2015,09,20,21,40,9.80
2015,09,20,21,41,9.80
2015,09,20,21,42,9.80
2015,09,20,21,43,9.80
2015,09,20,21,44,9.80
2015,09,20,21,45,9.70
2015,09,20,21,46,9.70
2015,09,20,21,47,9.70
2015,09,20,21,48,9.70
2015,09,20,21,49,9.70
2015,09,20,21,50,9.70
2015,09,20,21,51,9.70
2015,09,20,21,52,9.70
2015,09,20,21,53,9.70
2015,09,20,21,54,9.70
2015,09,20,21,55,9.70
2015,09,20,21,56,9.60
2015,09,20,21,57,9.60
2015,09,20,21,58,9.60
2015,09,20,21,59,9.60
2015,09,20,22,00,9.60
2015,09,20,22,01,9.60
2015,09,20,22,02,9.60
2015,09,20,22,03,9.60
2015,09,20,22,04,9.60
2015,09,20,22,05,9.60
2015,09,20,22,06,9.50
2015,09,20,22,07,9.50
2015,09,20,22,08,9.50
2015,09,20,22,09,9.50
2015,09,20,22,10,9.50
2015,09,20,22,11,9.40
2015,09,20,22,12,9.40
2015,09,20,22,13,9.40
2015,09,20,22,14,9.40
2015,09,20,22,15,9.40
2015,09,20,22,16,9.40
2015,09,20,22,17,9.40
2015,09,20,22,18,9.50
2015,09,20,22,19,9.40
2015,09,20,22,20,9.40
2015,09,20,22,21,9.40
2015,09,20,22,22,9.40
2015,09,20,22,23,9.40
2015,09,20,22,24,9.40
2015,09,20,22,25,9.40
2015,09,20,22,26,9.50
2015,09,20,22,27,9.50
2015,09,20,22,28,9.50
2015,09,20,22,29,9.50
2015,09,20,22,30,9.50
2015,09,20,22,31,9.50
2015,09,20,22,32,9.50
2015,09,20,22,33,9.50
2015,09,20,22,34,9.60
2015,09,20,22,35,9.60
2015,09,20,22,36,9.60
2015,09,20,22,37,9.60
2015,09,20,22,38,9.60
2015,09,20,22,39,9.60
2015,09,20,22,40,9.60
2015,09,20,22,41,9.60
2015,09,20,22,42,9.60
2015,09,20,22,43,9.60
2015,09,20,22,44,9.60
2015,09,20,22,45,9.60
2015,09,20,22,46,9.60
2015,09,20,22,47,9.60
2015,09,20,22,48,9.60
2015,09,20,22,49,9.60
2015,09,20,22,50,9.60
2015,09,20,22,51,9.60
2015,09,20,22,52,9.60
2015,09,20,22,53,9.60
2015,09,20,22,54,9.60
2015,09,20,22,55,9.60
2015,09,20,22,56,9.60
2015,09,20,22,57,9.60
2015,09,20,22,58,9.60
2015,09,20,22,59,9.70
2015,09,20,23,00,9.70
2015,09,20,23,01,9.70
2015,09,20,23,02,9.70
2015,09,20,23,03,9.70
2015,09,20,23,04,9.70
2015,09,20,23,05,9.70
2015,09,20,23,06,9.70
2015,09,20,23,07,9.70
2015,09,20,23,08,9.70
2015,09,20,23,09,9.70
2015,09,20,23,10,9.70
2015,09,20,23,11,9.70
2015,09,20,23,12,9.70
2015,09,20,23,13,9.70
2015,09,20,23,14,9.70
2015,09,20,23,15,9.60
2015,09,20,23,16,9.60
2015,09,20,23,17,9.60
2015,09,20,23,18,9.60
2015,09,20,23,19,9.60
2015,09,20,23,20,9.50
2015,09,20,23,21,9.50
2015,09,20,23,22,9.50
2015,09,20,23,23,9.50
2015,09,20,23,24,9.50
2015,09,20,23,25,9.50
2015,09,20,23,26,9.40
2015,09,20,23,27,9.40
2015,09,20,23,28,9.40
2015,09,20,23,29,9.40
2015,09,20,23,30,9.40
2015,09,20,23,31,9.40
2015,09,20,23,32,9.40
2015,09,20,23,33,9.40
2015,09,20,23,34,9.40
2015,09,20,23,35,9.40
2015,09,20,23,36,9.40
2015,09,20,23,37,9.30
2015,09,20,23,38,9.30
2015,09,20,23,39,9.30
2015,09,20,23,40,9.30
2015,09,20,23,41,9.30
2015,09,20,23,42,9.20
2015,09,20,23,43,9.20
2015,09,20,23,44,9.20
2015,09,20,23,45,9.20
2015,09,20,23,46,9.20
2015,09,20,23,47,9.20
2015,09,20,23,48,9.20
2015,09,20,23,49,9.20
2015,09,20,23,50,9.20
2015,09,20,23,51,9.20
2015,09,20,23,52,9.10
2015,09,20,23,53,9.10
2015,09,20,23,54,9.10
2015,09,20,23,55,9.10
2015,09,20,23,56,9.10
2015,09,20,23,57,9.10
2015,09,20,23,58,9.10
2015,09,20,23,59,9.10
